TimeMDT,TemperatureF,Dew PointF,Humidity,Sea Level PressureIn,VisibilityMPH,Wind Direction,Wind SpeedMPH,Gust SpeedMPH,PrecipitationIn,Events,Conditions,WindDirDegrees,DateUTC
12:53 AM,26.1,19.9,78,30.16,10.0,NNW,5.8,-,N/A,,Mostly Cloudy,330,2013-03-10 07:53:00
1:53 AM,21.2,17.6,86,30.09,10.0,WNW,5.8,-,N/A,,Mostly Cloudy,300,2013-03-10 08:53:00
3:53 AM,23.0,18.0,81,30.16,10.0,NW,9.2,-,N/A,,Partly Cloudy,320,2013-03-10 09:53:00
4:53 AM,23.0,16.0,74,30.19,10.0,NW,12.7,-,N/A,,Clear,320,2013-03-10 10:53:00
5:53 AM,18.0,12.9,81,30.22,10.0,WNW,5.8,-,N/A,,Clear,300,2013-03-10 11:53:00
6:53 AM,17.1,12.0,81,30.24,10.0,NNW,9.2,-,N/A,,Clear,330,2013-03-10 12:53:00
7:53 AM,19.0,12.0,74,30.24,10.0,WNW,9.2,-,N/A,,Clear,300,2013-03-10 13:53:00
8:53 AM,25.0,15.1,66,30.23,10.0,NNW,17.3,-,N/A,,Clear,330,2013-03-10 14:53:00
9:53 AM,28.9,15.1,56,30.23,10.0,NNW,21.9,29.9,N/A,,Clear,340,2013-03-10 15:53:00
10:53 AM,33.1,12.9,43,30.21,10.0,NNW,20.7,32.2,N/A,,Clear,340,2013-03-10 16:53:00
11:53 AM,37.0,9.0,31,30.19,10.0,NNW,21.9,31.1,N/A,,Clear,330,2013-03-10 17:53:00
12:53 PM,39.9,7.0,26,30.17,10.0,NNW,20.7,32.2,N/A,,Clear,340,2013-03-10 18:53:00
1:53 PM,41.0,3.0,21,30.14,10.0,North,15.0,26.5,N/A,,Clear,360,2013-03-10 19:53:00
2:53 PM,44.1,3.9,19,30.13,10.0,NNW,19.6,27.6,N/A,,Clear,340,2013-03-10 20:53:00
3:53 PM,46.0,7.0,20,30.10,10.0,North,15.0,23.0,N/A,,Clear,350,2013-03-10 21:53:00
4:53 PM,46.9,5.0,18,30.08,10.0,North,16.1,-,N/A,,Clear,360,2013-03-10 22:53:00
5:53 PM,46.9,5.0,18,30.08,10.0,North,13.8,-,N/A,,Clear,350,2013-03-10 23:53:00
6:53 PM,39.0,6.1,26,30.10,10.0,North,6.9,-,N/A,,Clear,360,2013-03-11 00:53:00
7:53 PM,34.0,7.0,32,30.11,10.0,NNE,6.9,-,N/A,,Clear,20,2013-03-11 01:53:00
8:53 PM,30.9,10.0,42,30.09,10.0,SSE,5.8,-,N/A,,Clear,160,2013-03-11 02:53:00
9:53 PM,27.0,9.0,47,30.10,10.0,ESE,4.6,-,N/A,,Clear,110,2013-03-11 03:53:00
10:53 PM,26.1,10.9,53,30.09,10.0,ESE,4.6,-,N/A,,Clear,110,2013-03-11 04:53:00
11:53 PM,24.1,10.9,57,30.05,10.0,East,9.2,-,N/A,,Clear,80,2013-03-11 05:53:00
12:53 AM,25.0,10.9,55,30.01,10.0,Calm,Calm,-,N/A,,Clear,0,2013-03-11 06:53:00